owner,sensor,date,latitude,longitude,vertical_datum,sea_water_speed,direction_of_sea_water_velocity,upward_sea_water_velocity,qcFlag
BP,ioos:station:wmo:42369:4,2022-12-01T00:00:00Z,27.1997,-90.2829,1343.0,18.4,287.1,-9999.0,'111111111,111111111,999999991'
BP,ioos:station:wmo:42369:4,2022-12-01T00:20:00Z,27.1997,-90.2831,1343.0,17.4,278.9,-9999.0,'111111111,111111111,999999991'
BP,ioos:station:wmo:42369:4,2022-12-01T00:40:00Z,27.1997,-90.2831,1343.0,14.8,288.1,-9999.0,'111111111,111111111,999999991'
BP,ioos:station:wmo:42369:4,2022-12-01T01:00:00Z,27.1997,-90.2831,1343.0,13.1,298.7,-9999.0,'111111111,111111111,999999991'
BP,ioos:station:wmo:42369:4,2022-12-01T01:40:00Z,27.1997,-90.2831,1343.0,10.7,305.5,-9999.0,'111111111,111111111,999999991'
BP,ioos:station:wmo:42369:4,2022-12-01T02:00:00Z,27.1997,-90.2831,1343.0,11.4,297.2,-9999.0,'111111111,111111111,999999991'
BP,ioos:station:wmo:42369:4,2022-12-01T02:20:00Z,27.1997,-90.2831,1343.0,10.2,305.9,-9999.0,'111111111,111111111,999999991'
BP,ioos:station:wmo:42369:4,2022-12-01T02:40:00Z,27.1997,-90.2831,1343.0,11.9,295.9,-9999.0,'111111111,111111111,999999991'
BP,ioos:station:wmo:42369:4,2022-12-01T03:00:00Z,27.1997,-90.2831,1343.0,11.3,307.1,-9999.0,'111111111,111111111,999999991'
BP,ioos:station:wmo:42369:4,2022-12-01T03:20:00Z,27.1997,-90.2831,1343.0,11.2,315.7,-9999.0,'111111111,111111111,999999991'
BP,ioos:station:wmo:42369:4,2022-12-01T03:40:00Z,27.1997,-90.2831,1343.0,9.6,310.3,-9999.0,'111111111,111111111,999999991'
BP,ioos:station:wmo:42369:4,2022-12-01T04:00:00Z,27.1997,-90.2831,1343.0,8.8,317.3,-9999.0,'111111111,111111111,999999991'
BP,ioos:station:wmo:42369:4,2022-12-01T04:20:00Z,27.1997,-90.2831,1343.0,8.4,324.2,-9999.0,'111111111,111111111,999999991'
BP,ioos:station:wmo:42369:4,2022-12-01T04:40:00Z,27.1997,-90.2831,1343.0,7.6,301.6,-9999.0,'111111111,111111111,999999991'
BP,ioos:station:wmo:42369:4,2022-12-01T05:00:00Z,27.1997,-90.2831,1343.0,7.5,318.2,-9999.0,'111111111,111111111,999999991'
BP,ioos:station:wmo:42369:4,2022-12-01T05:20:00Z,27.1997,-90.2831,1343.0,6.5,319.4,-9999.0,'111111111,111111111,999999991'
BP,ioos:station:wmo:42369:4,2022-12-01T05:40:00Z,27.1997,-90.2831,1343.0,7.8,329.2,-9999.0,'111111111,111111111,999999991'
BP,ioos:station:wmo:42369:4,2022-12-01T06:00:00Z,27.1997,-90.2831,1343.0,7.0,330.9,-9999.0,'111111111,111111111,999999991'
BP,ioos:station:wmo:42369:4,2022-12-01T06:20:00Z,27.1997,-90.2831,1343.0,7.8,324.9,-9999.0,'111111111,111111111,999999991'
BP,ioos:station:wmo:42369:4,2022-12-01T06:40:00Z,27.1997,-90.2831,1343.0,5.4,312.0,-9999.0,'111111111,111111111,999999991'
BP,ioos:station:wmo:42369:4,2022-12-01T07:00:00Z,27.1997,-90.2831,1343.0,5.7,324.9,-9999.0,'111111111,111111111,999999991'
BP,ioos:station:wmo:42369:4,2022-12-01T07:20:00Z,27.1997,-90.2831,1343.0,4.9,315.8,-9999.0,'111111111,111111111,999999991'
BP,ioos:station:wmo:42369:4,2022-12-01T07:40:00Z,27.1997,-90.2831,1343.0,5.0,328.8,-9999.0,'111111111,111111111,999999991'
BP,ioos:station:wmo:42369:4,2022-12-01T08:00:00Z,27.1997,-90.2831,1343.0,4.3,307.4,-9999.0,'111111111,111111111,999999991'
BP,ioos:station:wmo:42369:4,2022-12-01T08:20:00Z,27.1997,-90.2831,1343.0,4.7,316.7,-9999.0,'111111111,111111111,999999991'
BP,ioos:station:wmo:42369:4,2022-12-01T08:40:00Z,27.1997,-90.2831,1343.0,4.3,317.8,-9999.0,'111111111,111111111,999999991'
BP,ioos:station:wmo:42369:4,2022-12-01T09:00:00Z,27.1997,-90.2831,1343.0,4.3,302.6,-9999.0,'111111111,111111111,999999991'
BP,ioos:station:wmo:42369:4,2022-12-01T09:20:00Z,27.1997,-90.2831,1343.0,4.4,298.3,-9999.0,'111111111,111111111,999999991'
BP,ioos:station:wmo:42369:4,2022-12-01T09:40:00Z,27.1997,-90.2831,1343.0,4.9,305.9,-9999.0,'111111111,111111111,999999991'
BP,ioos:station:wmo:42369:4,2022-12-01T10:00:00Z,27.1997,-90.2831,1343.0,4.4,298.3,-9999.0,'111111111,111111111,999999991'
BP,ioos:station:wmo:42369:4,2022-12-01T10:20:00Z,27.1997,-90.2831,1343.0,5.2,287.7,-9999.0,'111111111,111111111,999999991'
BP,ioos:station:wmo:42369:4,2022-12-01T10:40:00Z,27.1997,-90.2831,1343.0,4.4,275.2,-9999.0,'111111111,111111111,999999991'
BP,ioos:station:wmo:42369:4,2022-12-01T11:00:00Z,27.1997,-90.2831,1343.0,5.3,275.4,-9999.0,'111111111,111111111,999999991'
BP,ioos:station:wmo:42369:4,2022-12-01T11:20:00Z,27.1997,-90.2831,1343.0,4.1,274.2,-9999.0,'111111111,111111111,999999991'
BP,ioos:station:wmo:42369:4,2022-12-01T11:40:00Z,27.1997,-90.2831,1343.0,4.6,271.2,-9999.0,'111111111,111111111,999999991'
BP,ioos:station:wmo:42369:4,2022-12-01T12:00:00Z,27.1997,-90.2831,1343.0,4.3,271.3,-9999.0,'111111111,111111111,999999991'
BP,ioos:station:wmo:42369:4,2022-12-01T12:20:00Z,27.2006,-90.2805,1343.0,5.4,276.3,-9999.0,'111111111,111111111,999999991'
BP,ioos:station:wmo:42369:4,2022-12-01T12:40:00Z,27.2006,-90.2805,1343.0,6.5,283.4,-9999.0,'111111111,111111111,999999991'
BP,ioos:station:wmo:42369:4,2022-12-01T13:00:00Z,27.2007,-90.2804,1343.0,5.7,283.1,-9999.0,'111111111,111111111,999999991'
BP,ioos:station:wmo:42369:4,2022-12-01T13:20:00Z,27.2007,-90.2804,1343.0,4.7,290.0,-9999.0,'111111111,111111111,999999991'
BP,ioos:station:wmo:42369:4,2022-12-01T13:40:00Z,27.2006,-90.2804,1343.0,5.4,259.3,-9999.0,'111111111,111111111,999999991'
BP,ioos:station:wmo:42369:4,2022-12-01T14:00:00Z,27.2006,-90.2803,1343.0,7.7,288.9,-9999.0,'111111111,111111111,999999991'
BP,ioos:station:wmo:42369:4,2022-12-01T14:20:00Z,27.2006,-90.2803,1343.0,6.1,292.0,-9999.0,'111111111,111111111,999999991'
BP,ioos:station:wmo:42369:4,2022-12-01T14:40:00Z,27.2006,-90.2803,1343.0,4.4,270.0,-9999.0,'111111111,111111111,999999991'
BP,ioos:station:wmo:42369:4,2022-12-01T15:00:00Z,27.2007,-90.2801,1343.0,8.4,285.9,-9999.0,'111111111,111111111,999999991'
BP,ioos:station:wmo:42369:4,2022-12-01T15:20:00Z,27.2007,-90.2801,1343.0,4.9,281.8,-9999.0,'111111111,111111111,999999991'
BP,ioos:station:wmo:42369:4,2022-12-01T15:40:00Z,27.2007,-90.2800,1343.0,8.8,279.8,-9999.0,'111111111,111111111,999999991'
BP,ioos:station:wmo:42369:4,2022-12-01T16:00:00Z,27.2007,-90.2798,1343.0,7.8,285.6,-9999.0,'111111111,111111111,999999991'
BP,ioos:station:wmo:42369:4,2022-12-01T16:20:00Z,27.2007,-90.2798,1343.0,6.6,290.4,-9999.0,'111111111,111111111,999999991'
BP,ioos:station:wmo:42369:4,2022-12-01T16:40:00Z,27.2007,-90.2798,1343.0,9.5,279.7,-9999.0,'111111111,111111111,999999991'
BP,ioos:station:wmo:42369:4,2022-12-01T17:00:00Z,27.2007,-90.2798,1343.0,9.5,274.2,-9999.0,'111111111,111111111,999999991'
BP,ioos:station:wmo:42369:4,2022-12-01T17:20:00Z,27.2009,-90.2790,1343.0,10.7,282.4,-9999.0,'111111111,111111111,999999991'
BP,ioos:station:wmo:42369:4,2022-12-01T17:40:00Z,27.2009,-90.2790,1343.0,10.0,282.1,-9999.0,'111111111,111111111,999999991'
BP,ioos:station:wmo:42369:4,2022-12-01T18:00:00Z,27.2009,-90.2790,1343.0,10.0,280.4,-9999.0,'111111111,111111111,999999991'
BP,ioos:station:wmo:42369:4,2022-12-01T18:20:00Z,27.2009,-90.2790,1343.0,10.1,283.2,-9999.0,'111111111,111111111,999999991'
BP,ioos:station:wmo:42369:4,2022-12-01T18:40:00Z,27.2009,-90.2789,1343.0,8.4,280.2,-9999.0,'111111111,111111111,999999991'
BP,ioos:station:wmo:42369:4,2022-12-01T19:00:00Z,27.2009,-90.2789,1343.0,9.8,270.0,-9999.0,'111111111,111111111,999999991'
BP,ioos:station:wmo:42369:4,2022-12-01T19:20:00Z,27.2009,-90.2790,1343.0,8.7,274.6,-9999.0,'111111111,111111111,999999991'
BP,ioos:station:wmo:42369:4,2022-12-01T19:40:00Z,27.2008,-90.2791,1343.0,9.9,278.7,-9999.0,'111111111,111111111,999999991'
BP,ioos:station:wmo:42369:4,2022-12-01T20:00:00Z,27.2007,-90.2793,1343.0,10.2,265.5,-9999.0,'111111111,111111111,999999991'
BP,ioos:station:wmo:42369:4,2022-12-01T20:20:00Z,27.2007,-90.2793,1343.0,9.1,272.5,-9999.0,'111111111,111111111,999999991'
BP,ioos:station:wmo:42369:4,2022-12-01T20:40:00Z,27.2006,-90.2793,1343.0,8.3,281.2,-9999.0,'111111111,111111111,999999991'
BP,ioos:station:wmo:42369:4,2022-12-01T21:00:00Z,27.2007,-90.2793,1343.0,10.2,279.0,-9999.0,'111111111,111111111,999999991'
BP,ioos:station:wmo:42369:4,2022-12-01T21:20:00Z,27.2007,-90.2793,1343.0,8.3,285.4,-9999.0,'111111111,111111111,999999991'
BP,ioos:station:wmo:42369:4,2022-12-01T21:40:00Z,27.2007,-90.2793,1343.0,9.8,282.3,-9999.0,'111111111,111111111,999999991'
BP,ioos:station:wmo:42369:4,2022-12-01T22:00:00Z,27.2007,-90.2793,1343.0,8.2,284.0,-9999.0,'111111111,111111111,999999991'
BP,ioos:station:wmo:42369:4,2022-12-01T22:20:00Z,27.2007,-90.2793,1343.0,10.0,278.6,-9999.0,'111111111,111111111,999999991'
BP,ioos:station:wmo:42369:4,2022-12-01T22:40:00Z,27.2007,-90.2794,1343.0,10.9,279.5,-9999.0,'111111111,111111111,999999991'
BP,ioos:station:wmo:42369:4,2022-12-01T23:00:00Z,27.2006,-90.2795,1343.0,9.3,286.3,-9999.0,'111111111,111111111,999999991'
BP,ioos:station:wmo:42369:4,2022-12-01T23:20:00Z,27.2005,-90.2796,1343.0,8.7,293.6,-9999.0,'111111111,111111111,999999991'
BP,ioos:station:wmo:42369:4,2022-12-01T23:40:00Z,27.2005,-90.2798,1343.0,7.6,290.1,-9999.0,'111111111,111111111,999999991'
BP,ioos:station:wmo:42369:4,2022-12-02T00:00:00Z,27.2005,-90.2798,1343.0,6.8,275.9,-9999.0,'111111111,111111111,999999991'
BP,ioos:station:wmo:42369:4,2022-12-02T00:20:00Z,27.2005,-90.2798,1343.0,8.1,273.5,-9999.0,'111111111,111111111,999999991'
BP,ioos:station:wmo:42369:4,2022-12-02T00:40:00Z,27.2005,-90.2798,1343.0,8.5,277.5,-9999.0,'111111111,111111111,999999991'
BP,ioos:station:wmo:42369:4,2022-12-02T01:00:00Z,27.2005,-90.2798,1343.0,10.0,268.9,-9999.0,'111111111,111111111,999999991'
BP,ioos:station:wmo:42369:4,2022-12-02T01:20:00Z,27.2002,-90.2806,1343.0,10.1,269.4,-9999.0,'111111111,111111111,999999991'
BP,ioos:station:wmo:42369:4,2022-12-02T01:40:00Z,27.2002,-90.2807,1343.0,10.1,266.0,-9999.0,'111111111,111111111,999999991'
BP,ioos:station:wmo:42369:4,2022-12-02T02:00:00Z,27.2002,-90.2807,1343.0,10.3,262.7,-9999.0,'111111111,111111111,999999991'
BP,ioos:station:wmo:42369:4,2022-12-02T02:20:00Z,27.2002,-90.2811,1343.0,10.6,267.3,-9999.0,'111111111,111111111,999999991'
BP,ioos:station:wmo:42369:4,2022-12-02T02:40:00Z,27.2001,-90.2813,1343.0,9.9,264.2,-9999.0,'111111111,111111111,999999991'
BP,ioos:station:wmo:42369:4,2022-12-02T03:00:00Z,27.2001,-90.2813,1343.0,11.8,259.7,-9999.0,'111111111,111111111,999999991'
BP,ioos:station:wmo:42369:4,2022-12-02T03:20:00Z,27.2001,-90.2816,1343.0,10.5,261.8,-9999.0,'111111111,111111111,999999991'
BP,ioos:station:wmo:42369:4,2022-12-02T03:40:00Z,27.2002,-90.2817,1343.0,10.2,256.9,-9999.0,'111111111,111111111,999999991'
BP,ioos:station:wmo:42369:4,2022-12-02T04:00:00Z,27.2001,-90.2819,1343.0,10.0,263.1,-9999.0,'111111111,111111111,999999991'
BP,ioos:station:wmo:42369:4,2022-12-02T04:20:00Z,27.2001,-90.2820,1343.0,10.4,264.5,-9999.0,'111111111,111111111,999999991'
BP,ioos:station:wmo:42369:4,2022-12-02T04:40:00Z,27.2002,-90.2821,1343.0,11.3,267.5,-9999.0,'111111111,111111111,999999991'
BP,ioos:station:wmo:42369:4,2022-12-02T05:00:00Z,27.2002,-90.2821,1343.0,13.6,267.9,-9999.0,'111111111,111111111,999999991'
BP,ioos:station:wmo:42369:4,2022-12-02T05:20:00Z,27.2002,-90.2821,1343.0,14.8,266.9,-9999.0,'111111111,111111111,999999991'
BP,ioos:station:wmo:42369:4,2022-12-02T05:40:00Z,27.2002,-90.2821,1343.0,12.7,264.6,-9999.0,'111111111,111111111,999999991'
BP,ioos:station:wmo:42369:4,2022-12-02T06:00:00Z,27.2001,-90.2822,1343.0,13.7,271.7,-9999.0,'111111111,111111111,999999991'
BP,ioos:station:wmo:42369:4,2022-12-02T06:20:00Z,27.2001,-90.2822,1343.0,11.5,278.0,-9999.0,'111111111,111111111,999999991'
BP,ioos:station:wmo:42369:4,2022-12-02T06:40:00Z,27.2001,-90.2822,1343.0,10.5,280.5,-9999.0,'111111111,111111111,999999991'
BP,ioos:station:wmo:42369:4,2022-12-02T07:00:00Z,27.1999,-90.2830,1343.0,11.1,280.9,-9999.0,'111111111,111111111,999999991'
BP,ioos:station:wmo:42369:4,2022-12-02T07:20:00Z,27.1999,-90.2830,1343.0,14.6,279.5,-9999.0,'111111111,111111111,999999991'
BP,ioos:station:wmo:42369:4,2022-12-02T07:40:00Z,27.2000,-90.2831,1343.0,14.0,280.3,-9999.0,'111111111,111111111,999999991'
BP,ioos:station:wmo:42369:4,2022-12-02T08:00:00Z,27.2000,-90.2831,1343.0,14.8,278.2,-9999.0,'111111111,111111111,999999991'
BP,ioos:station:wmo:42369:4,2022-12-02T08:20:00Z,27.2000,-90.2830,1343.0,12.1,281.4,-9999.0,'111111111,111111111,999999991'
BP,ioos:station:wmo:42369:4,2022-12-02T08:40:00Z,27.2000,-90.2830,1343.0,13.0,280.6,-9999.0,'111111111,111111111,999999991'
BP,ioos:station:wmo:42369:4,2022-12-02T09:00:00Z,27.2000,-90.2830,1343.0,14.7,275.9,-9999.0,'111111111,111111111,999999991'
BP,ioos:station:wmo:42369:4,2022-12-02T09:20:00Z,27.2001,-90.2827,1343.0,14.4,275.6,-9999.0,'111111111,111111111,999999991'
BP,ioos:station:wmo:42369:4,2022-12-02T09:40:00Z,27.2001,-90.2826,1343.0,14.8,276.6,-9999.0,'111111111,111111111,999999991'
BP,ioos:station:wmo:42369:4,2022-12-02T10:00:00Z,27.2001,-90.2825,1343.0,15.7,278.4,-9999.0,'111111111,111111111,999999991'
BP,ioos:station:wmo:42369:4,2022-12-02T10:20:00Z,27.2002,-90.2822,1343.0,15.0,282.7,-9999.0,'111111111,111111111,999999991'
BP,ioos:station:wmo:42369:4,2022-12-02T10:40:00Z,27.2002,-90.2821,1343.0,16.5,286.9,-9999.0,'111111111,111111111,999999991'
BP,ioos:station:wmo:42369:4,2022-12-02T11:00:00Z,27.2002,-90.2821,1343.0,14.4,289.4,-9999.0,'111111111,111111111,999999991'
BP,ioos:station:wmo:42369:4,2022-12-02T11:20:00Z,27.2003,-90.2817,1343.0,14.6,294.3,-9999.0,'111111111,111111111,999999991'
BP,ioos:station:wmo:42369:4,2022-12-02T11:40:00Z,27.2004,-90.2815,1343.0,12.9,296.2,-9999.0,'111111111,111111111,999999991'
BP,ioos:station:wmo:42369:4,2022-12-02T12:00:00Z,27.2004,-90.2814,1343.0,9.7,291.3,-9999.0,'111111111,111111111,999999991'
BP,ioos:station:wmo:42369:4,2022-12-02T12:20:00Z,27.2005,-90.2809,1343.0,11.1,291.0,-9999.0,'111111111,111111111,999999991'
BP,ioos:station:wmo:42369:4,2022-12-02T12:40:00Z,27.2005,-90.2808,1343.0,10.8,297.0,-9999.0,'111111111,111111111,999999991'
BP,ioos:station:wmo:42369:4,2022-12-02T13:00:00Z,27.2005,-90.2806,1343.0,11.1,301.4,-9999.0,'111111111,111111111,999999991'
BP,ioos:station:wmo:42369:4,2022-12-02T13:20:00Z,27.2006,-90.2803,1343.0,7.9,309.3,-9999.0,'111111111,111111111,999999991'
BP,ioos:station:wmo:42369:4,2022-12-02T13:40:00Z,27.2006,-90.2803,1343.0,8.8,314.5,-9999.0,'111111111,111111111,999999991'
BP,ioos:station:wmo:42369:4,2022-12-02T14:00:00Z,27.2008,-90.2798,1343.0,7.7,309.2,-9999.0,'111111111,111111111,999999991'
BP,ioos:station:wmo:42369:4,2022-12-02T14:20:00Z,27.2008,-90.2798,1343.0,8.4,328.2,-9999.0,'111111111,111111111,999999991'
BP,ioos:station:wmo:42369:4,2022-12-02T14:40:00Z,27.2008,-90.2798,1343.0,8.9,327.9,-9999.0,'111111111,111111111,999999991'
BP,ioos:station:wmo:42369:4,2022-12-02T15:00:00Z,27.2008,-90.2798,1343.0,7.4,323.3,-9999.0,'111111111,111111111,999999991'
BP,ioos:station:wmo:42369:4,2022-12-02T15:20:00Z,27.2012,-90.2787,1343.0,7.7,319.7,-9999.0,'111111111,111111111,999999991'
BP,ioos:station:wmo:42369:4,2022-12-02T15:40:00Z,27.2012,-90.2787,1343.0,7.8,330.8,-9999.0,'111111111,111111111,999999991'
BP,ioos:station:wmo:42369:4,2022-12-02T16:00:00Z,27.2015,-90.2783,1343.0,6.8,324.0,-9999.0,'111111111,111111111,999999991'
BP,ioos:station:wmo:42369:4,2022-12-02T16:20:00Z,27.2016,-90.2780,1343.0,6.8,325.8,-9999.0,'111111111,111111111,999999991'
BP,ioos:station:wmo:42369:4,2022-12-02T16:40:00Z,27.2018,-90.2776,1343.0,8.0,341.1,-9999.0,'111111111,111111111,999999991'
BP,ioos:station:wmo:42369:4,2022-12-02T17:00:00Z,27.2019,-90.2775,1343.0,7.8,346.7,-9999.0,'111111111,111111111,999999991'
BP,ioos:station:wmo:42369:4,2022-12-02T17:20:00Z,27.2020,-90.2773,1343.0,8.7,351.4,-9999.0,'111111111,111111111,999999991'
BP,ioos:station:wmo:42369:4,2022-12-02T17:40:00Z,27.2022,-90.2770,1343.0,10.2,352.7,-9999.0,'111111111,111111111,999999991'
BP,ioos:station:wmo:42369:4,2022-12-02T18:00:00Z,27.2022,-90.2770,1343.0,10.2,351.6,-9999.0,'111111111,111111111,999999991'
BP,ioos:station:wmo:42369:4,2022-12-02T18:20:00Z,27.2026,-90.2766,1343.0,9.8,355.9,-9999.0,'111111111,111111111,999999991'
BP,ioos:station:wmo:42369:4,2022-12-02T18:40:00Z,27.2027,-90.2764,1343.0,9.3,354.5,-9999.0,'111111111,111111111,999999991'
BP,ioos:station:wmo:42369:4,2022-12-02T19:00:00Z,27.2028,-90.2763,1343.0,9.1,356.9,-9999.0,'111111111,111111111,999999991'
BP,ioos:station:wmo:42369:4,2022-12-02T19:20:00Z,27.2028,-90.2763,1343.0,8.2,353.7,-9999.0,'111111111,111111111,999999991'
BP,ioos:station:wmo:42369:4,2022-12-02T19:40:00Z,27.2028,-90.2762,1343.0,8.8,357.4,-9999.0,'111111111,111111111,999999991'
BP,ioos:station:wmo:42369:4,2022-12-02T20:00:00Z,27.2028,-90.2762,1343.0,8.8,0.0,-9999.0,'111111111,111441111,999999991'
BP,ioos:station:wmo:42369:4,2022-12-02T20:20:00Z,27.2049,-90.2733,1343.0,9.2,0.0,-9999.0,'111111111,111441111,999999991'
BP,ioos:station:wmo:42369:4,2022-12-02T20:40:00Z,27.2026,-90.2762,1343.0,7.3,0.0,-9999.0,'111111111,111441111,999999991'
BP,ioos:station:wmo:42369:4,2022-12-02T21:00:00Z,27.2025,-90.2763,1343.0,8.2,355.8,-9999.0,'111111111,111111111,999999991'
BP,ioos:station:wmo:42369:4,2022-12-02T21:20:00Z,27.2024,-90.2763,1343.0,8.2,2.1,-9999.0,'111111111,111111111,999999991'
BP,ioos:station:wmo:42369:4,2022-12-02T21:40:00Z,27.2024,-90.2763,1343.0,7.4,356.9,-9999.0,'111111111,111111111,999999991'
BP,ioos:station:wmo:42369:4,2022-12-02T22:00:00Z,27.2049,-90.2733,1343.0,6.8,0.0,-9999.0,'111111111,111441111,999999991'
BP,ioos:station:wmo:42369:4,2022-12-02T22:20:00Z,27.2020,-90.2767,1343.0,6.5,353.0,-9999.0,'111111111,111111111,999999991'
BP,ioos:station:wmo:42369:4,2022-12-02T22:40:00Z,27.2020,-90.2767,1343.0,5.0,350.7,-9999.0,'111111111,111111111,999999991'
BP,ioos:station:wmo:42369:4,2022-12-02T23:00:00Z,27.2049,-90.2733,1343.0,5.0,342.6,-9999.0,'111111111,111111111,999999991'
BP,ioos:station:wmo:42369:4,2022-12-02T23:20:00Z,27.2017,-90.2770,1343.0,4.5,356.2,-9999.0,'111111111,111111111,999999991'
BP,ioos:station:wmo:42369:4,2022-12-02T23:40:00Z,27.2017,-90.2770,1343.0,4.1,332.2,-9999.0,'111111111,111111111,999999991'
BP,ioos:station:wmo:42369:4,2022-12-03T00:00:00Z,27.2016,-90.2772,1343.0,5.1,338.0,-9999.0,'111111111,111111111,999999991'
BP,ioos:station:wmo:42369:4,2022-12-03T00:20:00Z,27.2014,-90.2775,1343.0,4.5,333.4,-9999.0,'111111111,111111111,999999991'
BP,ioos:station:wmo:42369:4,2022-12-03T00:40:00Z,27.2013,-90.2776,1343.0,4.7,333.4,-9999.0,'111111111,111111111,999999991'
BP,ioos:station:wmo:42369:4,2022-12-03T01:00:00Z,27.2013,-90.2777,1343.0,4.5,320.4,-9999.0,'111111111,111111111,999999991'
BP,ioos:station:wmo:42369:4,2022-12-03T01:20:00Z,27.2012,-90.2778,1343.0,4.9,327.6,-9999.0,'111111111,111111111,999999991'
BP,ioos:station:wmo:42369:4,2022-12-03T01:40:00Z,27.2049,-90.2733,1343.0,3.7,327.2,-9999.0,'111111111,111111111,999999991'
BP,ioos:station:wmo:42369:4,2022-12-03T02:00:00Z,27.2049,-90.2733,1343.0,3.7,312.8,-9999.0,'111111111,111111111,999999991'
BP,ioos:station:wmo:42369:4,2022-12-03T02:20:00Z,27.2010,-90.2782,1343.0,4.5,324.9,-9999.0,'111111111,111111111,999999991'
BP,ioos:station:wmo:42369:4,2022-12-03T02:40:00Z,27.2010,-90.2783,1343.0,3.0,327.4,-9999.0,'111331111,111111111,999999991'
BP,ioos:station:wmo:42369:4,2022-12-03T03:00:00Z,27.2049,-90.2733,1343.0,3.8,322.5,-9999.0,'111111111,111111111,999999991'
BP,ioos:station:wmo:42369:4,2022-12-03T03:20:00Z,27.2009,-90.2785,1343.0,2.8,316.5,-9999.0,'111331111,111111111,999999991'
BP,ioos:station:wmo:42369:4,2022-12-03T03:40:00Z,27.2008,-90.2786,1343.0,3.8,299.9,-9999.0,'111111111,111111111,999999991'
BP,ioos:station:wmo:42369:4,2022-12-03T04:00:00Z,27.2008,-90.2786,1343.0,4.8,261.5,-9999.0,'111111111,111111111,999999991'
BP,ioos:station:wmo:42369:4,2022-12-03T04:20:00Z,27.2007,-90.2787,1343.0,5.3,274.3,-9999.0,'111111111,111111111,999999991'
BP,ioos:station:wmo:42369:4,2022-12-03T04:40:00Z,27.2007,-90.2787,1343.0,5.5,274.2,-9999.0,'111111111,111111111,999999991'
BP,ioos:station:wmo:42369:4,2022-12-03T05:00:00Z,27.2007,-90.2787,1343.0,4.4,287.2,-9999.0,'111111111,111111111,999999991'
BP,ioos:station:wmo:42369:4,2022-12-03T05:20:00Z,27.2049,-90.2733,1343.0,4.9,275.8,-9999.0,'111111111,111111111,999999991'
BP,ioos:station:wmo:42369:4,2022-12-03T05:40:00Z,27.2007,-90.2788,1343.0,5.4,271.1,-9999.0,'111111111,111111111,999999991'
BP,ioos:station:wmo:42369:4,2022-12-03T06:00:00Z,27.2007,-90.2788,1343.0,2.5,276.8,-9999.0,'111331111,111111111,999999991'
BP,ioos:station:wmo:42369:4,2022-12-03T06:20:00Z,27.2007,-90.2789,1343.0,2.0,258.7,-9999.0,'111331111,111111111,999999991'
BP,ioos:station:wmo:42369:4,2022-12-03T06:40:00Z,27.2007,-90.2789,1343.0,1.8,273.2,-9999.0,'111331111,111111111,999999991'
BP,ioos:station:wmo:42369:4,2022-12-03T07:00:00Z,27.2049,-90.2733,1343.0,2.9,252.2,-9999.0,'111331111,111111111,999999991'
BP,ioos:station:wmo:42369:4,2022-12-03T07:20:00Z,27.2007,-90.2790,1343.0,2.6,254.4,-9999.0,'111331111,111111111,999999991'
BP,ioos:station:wmo:42369:4,2022-12-03T07:40:00Z,27.2007,-90.2790,1343.0,3.5,255.2,-9999.0,'111111111,111111111,999999991'
BP,ioos:station:wmo:42369:4,2022-12-03T08:00:00Z,27.2049,-90.2733,1343.0,3.5,263.5,-9999.0,'111111111,111111111,999999991'
BP,ioos:station:wmo:42369:4,2022-12-03T08:20:00Z,27.2007,-90.2790,1343.0,3.6,260.5,-9999.0,'111111111,111111111,999999991'
BP,ioos:station:wmo:42369:4,2022-12-03T08:40:00Z,27.2007,-90.2791,1343.0,2.7,231.0,-9999.0,'111331111,111111111,999999991'
BP,ioos:station:wmo:42369:4,2022-12-03T09:00:00Z,27.2049,-90.2733,1343.0,2.4,240.3,-9999.0,'111331111,111111111,999999991'
BP,ioos:station:wmo:42369:4,2022-12-03T09:20:00Z,27.2008,-90.2791,1343.0,3.0,256.4,-9999.0,'111331111,111111111,999999991'
BP,ioos:station:wmo:42369:4,2022-12-03T09:40:00Z,27.2007,-90.2791,1343.0,3.8,242.1,-9999.0,'111111111,111111111,999999991'
BP,ioos:station:wmo:42369:4,2022-12-03T10:00:00Z,27.2049,-90.2733,1343.0,2.9,249.7,-9999.0,'111331111,111111111,999999991'
BP,ioos:station:wmo:42369:4,2022-12-03T10:20:00Z,27.2008,-90.2791,1343.0,3.2,259.0,-9999.0,'111111111,111111111,999999991'
BP,ioos:station:wmo:42369:4,2022-12-03T10:40:00Z,27.2008,-90.2790,1343.0,3.0,244.3,-9999.0,'111331111,111111111,999999991'
BP,ioos:station:wmo:42369:4,2022-12-03T11:00:00Z,27.2049,-90.2733,1343.0,5.0,250.1,-9999.0,'111111111,111111111,999999991'
BP,ioos:station:wmo:42369:4,2022-12-03T11:20:00Z,27.2008,-90.2790,1343.0,4.5,268.7,-9999.0,'111111111,111111111,999999991'
BP,ioos:station:wmo:42369:4,2022-12-03T11:40:00Z,27.2008,-90.2790,1343.0,4.1,257.3,-9999.0,'111111111,111111111,999999991'
BP,ioos:station:wmo:42369:4,2022-12-03T12:00:00Z,27.2008,-90.2789,1343.0,2.8,232.3,-9999.0,'111331111,111111111,999999991'
BP,ioos:station:wmo:42369:4,2022-12-03T12:20:00Z,27.2008,-90.2789,1343.0,2.1,223.0,-9999.0,'111331111,111111111,999999991'
BP,ioos:station:wmo:42369:4,2022-12-03T12:40:00Z,27.2008,-90.2788,1343.0,2.2,239.9,-9999.0,'111331111,111111111,999999991'
BP,ioos:station:wmo:42369:4,2022-12-03T13:00:00Z,27.2009,-90.2788,1343.0,3.5,248.5,-9999.0,'111111111,111111111,999999991'
BP,ioos:station:wmo:42369:4,2022-12-03T13:20:00Z,27.2009,-90.2788,1343.0,3.7,270.0,-9999.0,'111111111,111111111,999999991'
BP,ioos:station:wmo:42369:4,2022-12-03T13:40:00Z,27.2009,-90.2788,1343.0,4.8,265.2,-9999.0,'111111111,111111111,999999991'
BP,ioos:station:wmo:42369:4,2022-12-03T14:00:00Z,27.2009,-90.2788,1343.0,4.8,250.4,-9999.0,'111111111,111111111,999999991'
BP,ioos:station:wmo:42369:4,2022-12-03T14:20:00Z,27.2049,-90.2733,1343.0,3.2,261.1,-9999.0,'111111111,111111111,999999991'
BP,ioos:station:wmo:42369:4,2022-12-03T14:40:00Z,27.2009,-90.2788,1343.0,5.7,248.4,-9999.0,'111111111,111111111,999999991'
BP,ioos:station:wmo:42369:4,2022-12-03T15:00:00Z,27.2049,-90.2733,1343.0,4.7,250.0,-9999.0,'111111111,111111111,999999991'
BP,ioos:station:wmo:42369:4,2022-12-03T15:20:00Z,27.2010,-90.2787,1343.0,3.9,274.4,-9999.0,'111111111,111111111,999999991'
BP,ioos:station:wmo:42369:4,2022-12-03T15:40:00Z,27.2010,-90.2787,1343.0,5.3,274.3,-9999.0,'111111111,111111111,999999991'
BP,ioos:station:wmo:42369:4,2022-12-03T16:00:00Z,27.2011,-90.2785,1343.0,6.1,276.5,-9999.0,'111111111,111111111,999999991'